EW2649 Weather Reports


Display with metric or nautical units.
time (UTC)temp
F
wind
direction
speed
MPH
gust
MPH
rain 1hr
in
rain 24hr
in
rain mn
in
humidity
%
barometer
mb
20260507003021 73 222 3.0 7.0 0.00 0.00 0.00 61 1013.4
20260507001521 74 323 3.0 10.0 0.00 0.00 0.00 59 1013.4
20260507000020 74 31 2.0 10.0 0.00 0.00 0.00 60 1013.4
20260506234519 73 16 3.0 10.0 0.00 0.00 0.00 61 1013.3
20260506233019 75 38 3.0 10.0 0.00 0.00 0.00 61 1013.5
20260506231517 74 346 5.0 13.0 0.00 0.00 0.00 61 1013.5
20260506230013 74 53 2.0 9.0 0.00 0.00 0.00 60 1013.7
20260506224511 75 35 2.0 10.0 0.00 0.00 0.00 58 1013.9
20260506223006 74 32 1.0 10.0 0.00 0.00 0.00 60 1014.0
20260506221502 74 49 2.0 7.0 0.00 0.00 0.00 60 1014.2
20260506220059 73 128 4.0 9.0 0.00 0.00 0.00 58 1014.4
20260506214557 73 98 3.0 6.0 0.00 0.00 0.00 59 1014.5
20260506213110 72 28 1.0 8.0 0.00 0.00 0.00 59 1014.7
20260506211548 72 48 2.0 7.0 0.00 0.00 0.00 59 1014.8
20260506210042 71 69 2.0 12.0 0.00 0.00 0.00 62 1015.0
20260506204538 70 65 1.0 10.0 0.00 0.00 0.00 64 1015.1
20260506203034 70 105 1.0 8.0 0.00 0.00 0.00 61 1015.3
20260506201531 69 325 0.0 6.0 0.00 0.00 0.00 64 1015.5
20260506200027 68 69 2.0 8.0 0.00 0.00 0.00 68 1015.6
20260506194526 68 39 3.0 8.0 0.00 0.00 0.00 66 1015.8
20260506193022 69 46 1.0 6.0 0.00 0.00 0.00 66 1016.0
20260506191519 67 27 2.0 8.0 0.00 0.00 0.00 68 1016.0
20260506190016 67 75 2.0 10.0 0.00 0.00 0.00 69 1016.1
20260506184517 65 87 1.0 5.0 0.00 0.00 0.00 72 1016.1
20260506183013 64 336 3.0 5.0 0.00 0.00 0.00 72 1016.2
20260506181507 63 115 0.0 6.0 0.00 0.00 0.00 77 1016.4
20260506180002 62 331 2.0 5.0 0.00 0.00 0.00 77 1016.5
20260506174556 61 159 0.0 6.0 0.00 0.00 0.00 82 1016.6
20260506173012 59 237 0.0 4.0 0.00 0.00 0.00 82 1016.7
20260506171606 58 107 0.0 4.0 0.00 0.00 0.00 82 1016.8
20260506170019 58 109 1.0 3.0 0.00 0.00 0.00 83 1016.9
20260506164614 57 195 0.0 1.0 0.00 0.00 0.00 85 1016.9
20260506163030 57 196 0.0 2.0 0.00 0.00 0.00 86 1016.8
20260506161623 56 195 0.0 2.0 0.00 0.00 0.00 86 1016.8
20260506160044 56 198 1.0 2.0 0.00 0.00 0.00 87 1016.9
20260506154634 55 181 0.0 2.0 0.00 0.00 0.00 89 1016.8
20260506153108 55 182 1.0 3.0 0.00 0.00 0.00 89 1016.8
20260506151508 54 180 1.0 3.0 0.00 0.00 0.00 90 1016.8
20260506150103 54 184 2.0 3.0 0.00 0.00 0.00 91 1016.9
20260506144519 53 194 0.0 2.0 0.00 0.00 0.00 91 1016.8
20260506143107 53 193 1.0 3.0 0.00 0.00 0.00 91 1016.8
20260506141527 53 193 1.0 2.0 0.00 0.00 0.00 91 1016.6
20260506140119 53 194 0.0 1.0 0.00 0.00 0.00 91 1016.5
20260506134540 52 193 0.0 1.0 0.00 0.00 0.00 91 1016.3
20260506133125 52 194 0.0 2.0 0.00 0.00 0.00 91 1016.2
20260506131552 52 194 0.0 1.0 0.00 0.00 0.00 91 1016.0
20260506130003 52 194 1.0 3.0 0.00 0.00 0.00 91 1015.9
20260506124608 51 197 0.0 2.0 0.00 0.00 0.00 91 1015.8
20260506123015 51 188 1.0 3.0 0.00 0.00 0.00 91 1015.8
20260506121614 51 189 2.0 4.0 0.00 0.00 0.00 91 1015.8
20260506120029 51 189 1.0 3.0 0.00 0.00 0.00 91 1015.7
20260506114625 50 190 1.0 3.0 0.00 0.01 0.00 90 1015.6
20260506113044 51 223 1.0 2.0 0.00 0.01 0.00 89 1015.5
20260506111502 51 224 0.0 1.0 0.00 0.01 0.00 89 1015.5
20260506110053 52 224 1.0 2.0 0.00 0.01 0.00 89 1015.2
20260506104514 53 223 0.0 2.0 0.00 0.01 0.00 88 1015.1
20260506103105 54 224 0.0 3.0 0.00 0.01 0.00 88 1015.1
20260506101525 54 223 0.0 1.0 0.00 0.01 0.00 88 1015.1
20260506100121 54 224 0.0 1.0 0.00 0.01 0.00 88 1015.1
20260506094540 54 223 0.0 2.0 0.00 0.01 0.00 88 1015.1
20260506093133 54 223 0.0 2.0 0.00 0.01 0.00 88 1015.1
20260506091555 54 223 1.0 2.0 0.00 0.01 0.00 88 1015.0
20260506090020 54 223 0.0 2.0 0.00 0.01 0.00 87 1015.0
20260506084612 54 224 0.0 1.0 0.00 0.01 0.00 88 1015.0
20260506083033 54 224 1.0 2.0 0.00 0.01 0.00 87 1015.1
20260506081622 54 223 0.0 0.0 0.00 0.01 0.00 87 1015.1
20260506073038 54 223 0.0 0.0 0.00 0.01 0.00 85 1014.9
20260506071629 55 224 0.0 2.0 0.00 0.01 0.00 85 1014.8
20260506061526 55 224 0.0 0.0 0.00 0.01 0.01 83 1014.4
20260506060119 55 224 0.0 1.0 0.00 0.01 0.01 82 1014.3
20260506044607 56 242 2.0 4.0 0.00 0.01 0.01 81 1013.8
20260506043028 56 256 3.0 4.0 0.00 0.01 0.01 81 1013.7
20260506041619 56 236 4.0 10.0 0.00 0.01 0.01 81 1013.5
20260506040041 56 228 5.0 11.0 0.00 0.01 0.01 81 1013.2
20260506034634 57 239 1.0 4.0 0.00 0.01 0.01 81 1013.1
20260506033058 57 254 2.0 5.0 0.00 0.01 0.01 81 1012.8
20260506031514 57 224 4.0 6.0 0.00 0.01 0.01 81 1012.8
20260506030107 57 227 2.0 9.0 0.00 0.01 0.01 81 1012.6
20260506024552 57 300 6.0 12.0 0.00 0.01 0.01 81 1012.4
20260506023124 58 234 3.0 8.0 0.00 0.01 0.01 80 1012.1
20260506021541 58 217 7.0 11.0 0.00 0.01 0.01 78 1012.1
20260506020003 58 259 5.0 9.0 0.00 0.01 0.01 77 1012.1
20260506014556 59 241 7.0 11.0 0.00 0.01 0.01 77 1012.1
20260506013023 59 252 6.0 11.0 0.00 0.01 0.01 76 1012.1
20260506011611 59 236 3.0 11.0 0.00 0.01 0.01 77 1012.0
20260506010031 59 250 6.0 10.0 0.00 0.01 0.01 77 1012.0
20260506004625 59 254 3.0 10.0 0.00 0.01 0.01 78 1012.0